[[{"header":{"parameterUnit":"m.s-1","parameterCategory":1,"la1":30.2991,"la2":30.254,"lo1":-89.0895,"lo2":-89.0444,"dy":0.0017,"dx":0.0017,"nx":28,"ny":28,"refTime":"2023-09-21T09:00:00:Z","depth":0,"parameterNumber":2,"parameterNumberName":"U-component_of_WINDS"},"data":[0,0,0,0,0,0,0,0,0,0,0,0,0,0,0,0,0,0,0,0,0,0,0,0,0,0,0,0,0,0,0,0,0,0,0,0,0,0,0,0,0,0,0,0,0,0,0,0,0,0,0,0,0,0,0,0,0,0,-5.488,-5.4879,0,-5.4818,-5.4817,-5.4817,-5.4591,-5.4585,-5.458,-5.4575,-5.4517,-5.452,-5.4523,0,0,0,0,0,0,0,0,0,0,0,0,0,-5.4808,-5.481,-5.488,-5.4879,-5.4879,-5.4818,-5.4817,-5.4817,-5.4591,-5.4585,-5.4579,-5.4573,-5.4516,-5.452,-5.4524,0,0,0,0,0,0,0,0,0,0,0,0,0,-5.4802,-5.4811,-5.488,-5.4759,-5.4747,-5.4818,-5.4817,-5.4816,-5.4593,-5.4585,-5.4577,-5.457,-5.4515,-5.4519,-5.4524,-5.4709,0,0,-5.4539,-5.4541,0,0,0,0,0,0,0,0,-5.4803,-5.4805,-5.4778,-5.4767,-5.4755,-5.4704,-5.477,-5.4781,-5.4595,-5.4652,-5.4575,-5.4566,-5.4586,-5.4584,-5.459,-5.4706,-5.4704,-5.454,-5.4543,-5.4545,-5.4546,0,0,0,0,0,0,0,-5.4804,-5.4807,-5.4856,-5.4777,-5.4763,-5.4709,-5.47,-5.4771,-5.4663,-5.4646,-5.4629,-5.4625,-5.4578,-5.4586,-5.4587,-5.4703,-5.4539,-5.4544,-5.4547,-5.4549,-5.4969,-5.4976,0,0,0,0,0,0,-5.4821,-5.4808,-5.4858,-5.4854,-5.476,-5.4717,-5.4706,-5.4728,-5.4662,-5.4644,-5.4632,-5.4615,-5.4581,-5.4581,-5.4584,-5.4796,-5.4545,-5.4549,-5.4552,-5.496,-5.497,-5.4979,0,0,0,0,0,0,-5.482,-5.4827,-5.486,-5.4827,-5.4827,-5.4726,-5.4753,-5.4731,-5.4738,-5.4651,-5.4631,-5.4659,-5.4575,-5.4577,-5.4679,-5.4791,-5.4551,-5.4556,-5.4951,-5.4963,-5.4975,-5.5222,0,0,0,0,0,0,-5.4819,-5.4828,-5.4897,-5.483,-5.4829,-5.4956,-5.4759,-5.4735,-5.4747,-5.4724,-5.4671,-5.4655,-5.4569,-5.4673,-5.4684,-5.4793,-5.456,-5.494,-5.4956,-5.4971,-5.5204,-5.5242,-5.5274,0,0,0,0,0,-5.4817,-5.497,-5.4901,-5.4908,-5.4912,-5.4963,-5.4963,-5.4859,-5.4757,-5.4825,-5.4769,-5.4657,-5.4777,-5.4686,-5.4696,-5.4808,-5.4933,-5.4952,-5.497,-5.5188,-5.5234,-5.5273,0,0,0,0,0,0,-5.5054,-5.4959,-5.4882,-5.5017,-5.5,-5.4925,-5.5007,-5.4912,-5.4924,-5.4903,-5.4776,-5.4766,-5.4887,-5.4857,-5.4757,-5.4984,-5.4836,-5.4858,-5.4999,-5.5042,-5.5076,-5.5081,-5.4564,0,0,0,0,0,-5.5122,-5.5169,-5.5084,-5.5212,-5.5207,-5.511,-5.5128,-5.505,-5.5027,-5.5019,-5.497,-5.4954,-5.4988,-5.5013,-5.5039,-5.5198,-5.5184,-5.5281,-5.5316,-5.5345,-5.5365,-5.5448,-5.549,-5.504,-5.504,-5.504,0,0,-5.5263,-5.5216,-5.5255,-5.5258,-5.5235,-5.5289,-5.5105,-5.5169,-5.5208,-5.5029,-5.5122,-5.5087,-5.506,-5.5192,-5.5247,-5.5171,-5.5486,-5.5369,-5.5393,-5.5397,-5.5471,-5.5514,-5.5552,-5.5053,-5.505,-5.5048,0,0,-5.5546,-5.5516,-5.5619,-5.56,-5.5567,-5.5501,-5.5527,-5.5466,-5.5435,-5.5526,-5.5393,-5.5438,-5.5499,-5.5486,-5.5487,-5.5767,-5.5665,-5.5779,-5.5963,-5.6045,-5.608,-5.6111,-5.6211,-5.6249,-5.58,-5.58,-5.5801,0,-5.5726,-5.58,-5.5685,-5.5757,-5.5763,-5.5602,-5.5706,-5.5694,-5.5673,-5.5682,-5.5596,-5.5669,-5.564,-5.5767,-5.5835,-5.5841,-5.5867,-5.5785,-5.6084,-5.6114,-5.6141,-5.6235,-5.6273,-5.5815,-5.5813,-5.5811,-5.581,0,-5.6022,-5.6076,-5.6163,-5.6145,-5.616,-5.6249,-5.6149,-5.6179,-5.61,-5.6044,-5.614,-5.6099,-5.6115,-5.6139,-5.6063,-5.6255,-5.6209,-5.6106,-5.5955,-5.62,-5.6286,-5.6321,-5.5835,-5.583,-5.5826,-5.5822,0,0,-5.6454,-5.637,-5.6404,-5.6394,-5.6346,-5.6386,-5.6468,-5.6481,-5.651,-5.6501,-5.6567,-5.6623,-5.6527,-5.6529,-5.645,-5.6523,-5.6747,-5.641,-5.6407,-5.6475,-5.6958,-5.7036,-5.7079,-5.6679,-5.6685,-5.6691,-5.696,0,-5.6724,-5.6856,-5.6755,-5.6907,-5.6955,-5.6803,-5.6874,-5.6854,-5.6805,-5.684,-5.6784,-5.6826,-5.6696,-5.6697,-5.6761,-5.6707,-5.6843,-5.6686,-5.6741,-5.6744,-5.6752,-5.7124,-5.7206,-5.7462,-5.6993,-5.6998,-5.7002,0,-5.7056,-5.706,-5.7217,-5.7158,-5.7175,-5.7241,-5.7245,-5.728,-5.7254,-5.7213,-5.7216,-5.7118,-5.7196,-5.7048,-5.7154,-5.7049,-5.7066,-5.7043,-5.7051,-5.7052,-5.6888,-5.7136,-5.7541,-5.758,-5.7054,-5.705,-5.7047,0,-5.7355,-5.74,-5.7499,-5.7495,-5.743,-5.748,-5.7456,-5.7422,-5.7437,-5.7441,-5.7449,-5.7465,-5.7473,-5.7487,-5.7397,-5.7298,-5.7516,-5.736,-5.7485,-5.7488,-5.7537,-5.7535,-5.7952,-5.7549,-5.7548,-5.7548,-5.7547,0,-5.7667,-5.7769,-5.7632,-5.7694,-5.7803,-5.7687,-5.7799,-5.7759,-5.7731,-5.7783,-5.7653,-5.7705,-5.7582,-5.7622,-5.7552,-5.7651,-5.7656,-5.7626,-5.7606,-5.7638,-5.7642,-5.7647,-5.7627,-5.7558,-5.7556,-5.7554,-5.7552,0,-5.802,-5.7932,-5.803,-5.796,-5.7945,-5.8029,-5.797,-5.8024,-5.7966,-5.8033,-5.8042,-5.7952,-5.7992,-5.7903,-5.7931,-5.7884,-5.8025,-5.7977,-5.8033,-5.8019,-5.8149,-5.8138,-5.8583,-5.8636,-5.82,-5.8204,-5.8208,0,-5.8224,-5.8298,-5.8236,-5.8261,-5.8243,-5.8284,-5.8298,-5.8187,-5.8207,-5.8184,-5.8242,-5.8271,-5.8288,-5.836,-5.8297,-5.8319,-5.827,-5.8425,-5.8273,-5.8302,-5.8273,-5.8269,-5.8277,-5.8456,-5.8462,-5.8466,-5.847,0,-5.8597,-5.855,-5.8573,-5.8584,-5.8603,-5.8606,-5.86,-5.8628,-5.851,-5.8539,-5.8578,-5.8591,-5.8619,-5.865,-5.8657,-5.8633,-5.8534,-5.8518,-5.8548,-5.8581,-5.861,-5.8596,-5.8119,-5.8508,-5.8504,-5.8501,-5.8499,-5.8498,-5.8881,-5.894,-5.8905,-5.8936,-5.892,-5.8917,-5.8965,-5.8912,-5.8941,-5.8954,-5.8887,-5.8941,-5.8914,-5.8913,-5.89,-5.8941,-5.8872,-5.8915,-5.8926,-5.8939,-5.896,-5.8604,-5.8942,-5.8941,-5.894,-5.8939,-5.8938,0,-5.9247,-5.9217,-5.9247,-5.9241,-5.9266,-5.9168,-5.9156,-5.9184,-5.9232,-5.9215,-5.9234,-5.9279,-5.9309,-5.9249,-5.9269,-5.9314,-5.9269,-5.9324,-5.9319,-5.9315,-5.9021,-5.8993,-5.936,-5.936,-5.936,-5.936,-5.936,-5.9359,-5.944,-5.9534,-5.9484,-5.9569,-5.9538,-5.9588,-5.959,-5.9587,-5.9573,-5.9628,-5.9651,-5.9611,-5.9578,-5.9595,-5.9618,-5.96,-5.9614,-5.9685,-5.9651,-5.9377,-5.9336,-5.9297,-5.927,-5.9689,-5.9689,-5.9941,-5.9944,-5.9946]},{"header":{"parameterUnit":"m.s-1","parameterCategory":1,"la1":30.2991,"la2":30.254,"lo1":-89.0895,"lo2":-89.0444,"dy":0.0017,"dx":0.0017,"nx":28,"ny":28,"refTime":"2023-09-21T09:00:00:Z","depth":0,"parameterNumber":3,"parameterNumberName":"V-component_of_WINDS"},"data":[0,0,0,0,0,0,0,0,0,0,0,0,0,0,0,0,0,0,0,0,0,0,0,0,0,0,0,0,0,0,0,0,0,0,0,0,0,0,0,0,0,0,0,0,0,0,0,0,0,0,0,0,0,0,0,0,0,0,-1.531,-1.531,0,-1.5308,-1.5308,-1.5308,-1.528,-1.5279,-1.5278,-1.5277,-1.5275,-1.5275,-1.5276,0,0,0,0,0,0,0,0,0,0,0,0,0,-1.529,-1.529,-1.531,-1.531,-1.531,-1.5308,-1.5308,-1.5308,-1.528,-1.5279,-1.5278,-1.5277,-1.5274,-1.5275,-1.5276,0,0,0,0,0,0,0,0,0,0,0,0,0,-1.5294,-1.529,-1.531,-1.5296,-1.5295,-1.5308,-1.5308,-1.5308,-1.528,-1.5279,-1.5278,-1.5277,-1.5274,-1.5275,-1.5276,-1.5303,0,0,-1.5279,-1.5279,0,0,0,0,0,0,0,0,-1.5294,-1.5295,-1.5298,-1.5297,-1.5296,-1.5293,-1.53,-1.5306,-1.528,-1.5285,-1.5277,-1.5276,-1.5282,-1.5282,-1.5284,-1.5303,-1.5303,-1.5279,-1.5279,-1.528,-1.528,0,0,0,0,0,0,0,-1.5294,-1.5295,-1.5309,-1.5298,-1.5297,-1.5289,-1.5289,-1.5301,-1.529,-1.5285,-1.5283,-1.5283,-1.5281,-1.5283,-1.5283,-1.5303,-1.5279,-1.5279,-1.528,-1.528,-1.5342,-1.5343,0,0,0,0,0,0,-1.5295,-1.5295,-1.531,-1.5309,-1.5292,-1.5291,-1.529,-1.5295,-1.5289,-1.5287,-1.5284,-1.5282,-1.5282,-1.5282,-1.5283,-1.5313,-1.528,-1.528,-1.5281,-1.5341,-1.5342,-1.5343,0,0,0,0,0,0,-1.5295,-1.5297,-1.531,-1.5302,-1.5303,-1.5292,-1.5298,-1.5295,-1.5298,-1.5289,-1.5286,-1.5288,-1.5281,-1.5282,-1.5298,-1.5312,-1.5281,-1.5282,-1.534,-1.5341,-1.5343,-1.5374,0,0,0,0,0,0,-1.5295,-1.5297,-1.5307,-1.5302,-1.5303,-1.5325,-1.5299,-1.5296,-1.5299,-1.5296,-1.5292,-1.529,-1.528,-1.5297,-1.5299,-1.5313,-1.5282,-1.5338,-1.534,-1.5342,-1.5371,-1.5376,-1.538,0,0,0,0,0,-1.5294,-1.5316,-1.5308,-1.531,-1.5316,-1.5326,-1.5326,-1.5314,-1.5301,-1.531,-1.5305,-1.529,-1.5311,-1.5299,-1.5301,-1.5315,-1.5337,-1.534,-1.5342,-1.5369,-1.5375,-1.538,0,0,0,0,0,0,-1.5324,-1.5315,-1.5306,-1.5328,-1.5327,-1.5321,-1.5333,-1.5321,-1.5325,-1.5322,-1.5307,-1.5306,-1.5324,-1.5322,-1.5308,-1.5341,-1.5321,-1.5325,-1.5341,-1.5347,-1.5351,-1.5351,-1.5283,0,0,0,0,0,-1.5333,-1.5342,-1.5334,-1.5354,-1.5354,-1.5344,-1.5348,-1.5338,-1.5338,-1.5337,-1.5333,-1.5332,-1.5338,-1.5343,-1.5348,-1.5371,-1.5369,-1.5382,-1.5387,-1.5391,-1.5393,-1.5403,-1.5409,-1.5352,-1.5352,-1.5352,0,0,-1.5352,-1.5349,-1.5355,-1.536,-1.5358,-1.5367,-1.5344,-1.5355,-1.5361,-1.5339,-1.5353,-1.535,-1.5348,-1.5368,-1.5376,-1.5366,-1.5409,-1.5394,-1.5397,-1.5397,-1.5407,-1.5412,-1.5417,-1.5353,-1.5353,-1.5353,0,0,-1.5391,-1.539,-1.5405,-1.5404,-1.5402,-1.5395,-1.5399,-1.5394,-1.5391,-1.5405,-1.5388,-1.5396,-1.5407,-1.5406,-1.5407,-1.5445,-1.5432,-1.5447,-1.547,-1.5481,-1.5485,-1.5489,-1.5501,-1.5506,-1.545,-1.545,-1.545,0,-1.5414,-1.5427,-1.5414,-1.5426,-1.5427,-1.5408,-1.5423,-1.5423,-1.5424,-1.5425,-1.5415,-1.5427,-1.5425,-1.5443,-1.5452,-1.5455,-1.5458,-1.5447,-1.5486,-1.549,-1.5493,-1.5504,-1.5509,-1.5452,-1.5452,-1.5452,-1.5451,0,-1.5455,-1.5464,-1.5477,-1.5477,-1.5481,-1.5494,-1.5483,-1.5488,-1.5479,-1.5472,-1.5486,-1.5483,-1.5487,-1.5491,-1.5482,-1.5507,-1.5501,-1.5489,-1.5469,-1.55,-1.5511,-1.5515,-1.5454,-1.5454,-1.5453,-1.5453,0,0,-1.5512,-1.5504,-1.5509,-1.5508,-1.5505,-1.5512,-1.5524,-1.5527,-1.5531,-1.5533,-1.5541,-1.5551,-1.5539,-1.554,-1.5531,-1.5541,-1.5569,-1.5527,-1.5526,-1.5533,-1.5595,-1.5603,-1.5609,-1.5561,-1.5562,-1.5562,-1.5594,0,-1.5547,-1.5567,-1.5556,-1.5577,-1.5585,-1.5567,-1.5577,-1.5576,-1.557,-1.5576,-1.557,-1.5576,-1.5561,-1.5561,-1.557,-1.5564,-1.5581,-1.5562,-1.5568,-1.5568,-1.5567,-1.5614,-1.5623,-1.5654,-1.5599,-1.5599,-1.56,0,-1.5591,-1.5593,-1.5615,-1.5609,-1.5612,-1.5622,-1.5623,-1.5629,-1.5627,-1.5623,-1.5624,-1.5612,-1.5623,-1.5605,-1.5619,-1.5606,-1.5608,-1.5606,-1.5607,-1.5605,-1.5585,-1.5613,-1.5663,-1.5667,-1.5606,-1.5606,-1.5605,0,-1.5628,-1.5637,-1.565,-1.5651,-1.5645,-1.5652,-1.565,-1.5647,-1.5649,-1.5651,-1.5652,-1.5655,-1.5657,-1.5659,-1.5648,-1.5636,-1.5664,-1.5645,-1.5659,-1.5659,-1.5664,-1.5664,-1.5714,-1.5669,-1.5669,-1.5668,-1.5668,0,-1.5668,-1.5682,-1.5667,-1.5675,-1.569,-1.5677,-1.5691,-1.5687,-1.5685,-1.5692,-1.5677,-1.5684,-1.567,-1.5675,-1.5667,-1.5679,-1.5681,-1.5676,-1.5674,-1.5677,-1.5677,-1.5677,-1.5674,-1.567,-1.5669,-1.5669,-1.5669,0,-1.5711,-1.5702,-1.5715,-1.5708,-1.5707,-1.5718,-1.5712,-1.5719,-1.5713,-1.5721,-1.5723,-1.5713,-1.5718,-1.5708,-1.5713,-1.5707,-1.5724,-1.5719,-1.5724,-1.5722,-1.5736,-1.5734,-1.5787,-1.5793,-1.5745,-1.5745,-1.5746,0,-1.5736,-1.5746,-1.574,-1.5743,-1.5742,-1.5748,-1.575,-1.5738,-1.5741,-1.5739,-1.5746,-1.5751,-1.5753,-1.5762,-1.5755,-1.5758,-1.5752,-1.577,-1.5752,-1.5754,-1.575,-1.5749,-1.5749,-1.5773,-1.5774,-1.5774,-1.5775,0,-1.5781,-1.5776,-1.578,-1.5782,-1.5785,-1.5786,-1.5786,-1.579,-1.5777,-1.5781,-1.5786,-1.5788,-1.5792,-1.5795,-1.5797,-1.5794,-1.5782,-1.5781,-1.5784,-1.5786,-1.5788,-1.5786,-1.5732,-1.5779,-1.5779,-1.5779,-1.5778,-1.5778,-1.5815,-1.5822,-1.5819,-1.5823,-1.5822,-1.5822,-1.5828,-1.5822,-1.5826,-1.5828,-1.5821,-1.5828,-1.5825,-1.5825,-1.5824,-1.5829,-1.582,-1.5826,-1.5826,-1.5827,-1.5829,-1.5789,-1.5829,-1.5829,-1.5829,-1.5829,-1.5829,0,-1.5857,-1.5854,-1.5859,-1.5859,-1.5862,-1.5851,-1.585,-1.5854,-1.5859,-1.5858,-1.5861,-1.5866,-1.587,-1.5863,-1.5865,-1.587,-1.5865,-1.5871,-1.587,-1.5869,-1.5837,-1.5833,-1.5875,-1.5875,-1.5875,-1.5875,-1.5875,-1.5875,-1.588,-1.5891,-1.5886,-1.5896,-1.5893,-1.5899,-1.5899,-1.5899,-1.5898,-1.5904,-1.5907,-1.5903,-1.5899,-1.5901,-1.5904,-1.5901,-1.5902,-1.591,-1.5906,-1.5876,-1.5871,-1.5867,-1.5863,-1.5911,-1.5911,-1.5938,-1.5938,-1.5938]}]]